Theta_e
323 314 313 310 301 298 297 305 317 318 318 326 328 326 319 318 314 307 327 340 347 348 353 357 362 363 362 361 360 360 360 360 360 360 359 358 357 355 354 355 355 353 352 353 353 353 353 355 356
318 311 308 301 296 291 294 301 309 315 319 327 327 326 322 321 330 329 332 344 347 349 352 355 362 363 362 360 360 361 360 361 360 359 358 357 356 354 352 354 354 352 353 353 353 353 353 353 352
314 307 300 296 291 291 293 299 309 320 325 324 323 329 326 323 333 332 336 348 349 348 350 354 362 363 363 361 360 361 361 361 360 358 357 356 355 354 354 354 356 354 355 355 354 353 354 353 354
307 302 296 292 288 294 296 300 310 317 322 323 324 322 328 335 336 337 347 349 348 350 349 357 362 363 363 362 361 361 361 361 360 358 357 355 353 353 353 354 356 357 355 353 351 350 350 349 349
300 295 289 287 287 292 296 299 299 301 307 314 324 320 324 334 343 345 348 349 347 349 349 356 361 362 363 362 361 360 361 361 361 359 357 355 354 353 352 352 355 356 353 348 345 344 345 346 348
297 293 286 284 288 294 297 298 298 298 302 320 323 323 324 337 341 344 349 348 349 349 351 355 360 361 362 362 361 360 360 361 361 359 358 357 355 353 352 351 352 354 351 346 342 345 346 347 347
296 290 287 288 289 293 297 300 299 316 319 322 328 322 328 337 341 346 348 349 350 351 352 354 355 358 361 361 361 361 360 360 360 359 359 357 355 354 352 351 351 351 351 347 346 346 346 347 346
295 292 288 288 289 291 297 299 299 312 317 333 334 321 319 334 342 343 346 349 350 352 353 353 353 353 353 356 361 360 360 359 360 359 357 356 355 353 352 351 350 350 351 350 349 348 347 347 348
296 290 286 291 290 294 297 298 302 304 325 326 331 328 329 339 340 339 343 346 349 350 349 352 352 350 351 352 356 359 359 359 358 358 357 355 350 347 349 348 350 349 352 353 352 351 350 350 350
294 289 290 294 294 293 297 295 300 301 315 321 319 329 334 338 335 335 337 340 344 346 348 350 350 351 350 354 351 352 352 353 353 354 353 350 347 345 348 349 350 353 353 354 354 352 350 346 334
291 291 294 297 297 296 296 298 299 298 297 302 304 322 330 333 333 334 336 340 342 345 348 350 349 350 351 351 350 350 349 350 350 350 349 347 346 343 343 344 343 342 344 343 343 337 335 332 329
294 295 295 297 297 296 295 297 298 298 302 304 304 313 329 330 331 334 336 338 341 344 346 349 349 349 349 349 350 350 348 349 348 347 346 344 341 340 340 340 343 342 342 342 341 336 334 336 331
292 294 295 297 297 295 296 296 296 298 303 304 307 323 326 327 332 336 339 340 341 342 345 347 350 349 348 349 349 348 347 348 347 345 345 344 340 338 339 339 340 341 341 341 340 338 333 335 330
294 293 295 295 295 293 294 296 296 301 302 303 309 318 323 325 332 333 338 338 339 340 343 347 348 349 348 348 348 347 347 347 345 344 344 343 341 339 337 337 339 341 341 341 339 339 335 334 327
294 291 293 293 293 294 294 294 294 301 300 300 302 313 318 322 332 335 339 339 340 340 341 343 347 348 348 347 347 347 347 346 344 343 342 343 341 339 338 337 337 338 341 340 340 339 336 332 326
291 288 286 293 295 295 294 290 298 300 298 299 300 301 312 321 329 335 339 340 341 340 339 341 346 346 345 345 344 345 344 344 343 343 340 342 342 342 340 339 339 341 340 340 339 338 336 332 325
288 285 286 291 294 294 293 291 298 301 299 298 299 299 300 316 325 330 337 340 340 340 339 339 341 341 342 339 341 339 340 340 341 340 340 340 342 343 342 341 342 342 340 340 334 331 333 330 327
285 285 286 288 293 293 291 291 296 299 298 297 297 300 305 316 321 328 331 336 335 334 335 336 337 339 337 337 339 338 338 339 342 341 340 342 342 343 342 342 342 341 340 342 334 333 332 334 331
290 288 288 292 295 291 292 291 296 298 298 298 296 307 317 320 325 329 330 331 330 330 331 333 333 334 334 336 337 337 335 337 339 341 343 342 343 344 343 342 341 340 338 341 339 335 333 332 329
291 288 289 293 296 292 294 293 295 297 301 304 306 307 315 319 321 324 327 329 330 331 331 332 333 334 334 337 339 341 340 340 342 341 342 343 344 344 343 342 341 340 337 337 341 338 334 333 328
290 289 290 291 295 294 292 291 293 296 302 308 309 313 318 322 327 329 330 331 333 333 335 335 333 335 337 338 340 340 342 344 344 344 343 343 343 344 344 343 342 341 339 337 337 338 336 333 329
288 295 295 293 291 287 291 284 289 297 299 306 309 315 322 325 325 326 323 323 325 328 334 339 341 337 341 342 339 338 336 335 341 343 346 346 345 344 343 343 341 340 339 338 338 340 335 333 330
292 297 295 294 289 286 288 284 286 298 297 300 310 316 319 320 320 320 320 321 324 327 333 334 334 334 335 338 344 341 340 340 341 341 341 344 344 343 343 342 341 339 337 337 337 336 335 333 332
298 294 291 288 286 282 287 284 283 293 298 302 307 312 319 320 320 321 321 322 321 323 325 328 330 330 333 334 334 334 333 333 335 337 339 340 343 344 344 343 341 340 339 336 338 337 336 336 333
293 286 280 280 280 280 288 286 286 299 302 304 305 307 311 316 318 319 319 319 320 320 321 323 322 322 324 325 325 328 331 332 332 332 332 332 333 334 336 340 342 340 339 338 337 337 337 337 335
289 286 280 276 278 280 289 283 290 301 304 306 307 308 308 308 310 311 312 312 313 315 316 316 317 317 319 320 320 321 321 322 320 322 327 331 331 332 335 336 338 340 342 341 339 338 338 339 338
290 286 290 285 284 281 284 291 301 304 304 304 305 306 305 306 307 308 310 311 311 311 312 314 314 314 315 316 315 314 314 315 314 316 318 320 324 328 332 333 333 336 338 341 340 339 339 339 339
293 295 285 284 276 275 281 285 288 300 300 301 302 303 305 307 308 309 309 307 309 309 310 311 310 309 310 309 310 310 310 311 311 312 313 316 318 320 326 330 331 332 336 339 339 339 340 338 339
290 288 289 286 285 279 279 282 299 299 301 301 303 305 306 308 309 310 311 310 309 309 309 309 309 309 308 308 308 309 308 309 310 310 311 314 315 317 320 326 327 330 333 335 336 338 337 336 336
294 291 289 281 279 287 286 284 300 300 302 303 304 302 307 309 310 311 312 312 310 308 308 309 309 308 308 309 308 308 308 309 309 309 310 312 313 316 318 321 323 326 329 332 333 333 335 334 333
Wind_Speed
2 1 2 5 5 6 3 5 2 1 3 2 2 2 6 4 7 7 1 5 14 16 12 14 17 18 19 18 17 16 14 13 14 14 14 14 13 13 12 10 9 11 11 11 10 8 8 8 8
1 2 5 3 5 3 6 3 2 5 4 2 2 2 1 4 1 6 8 6 15 17 13 13 18 18 19 19 18 16 16 15 14 13 13 13 12 11 10 8 7 8 9 10 9 8 8 7 6
2 5 5 5 4 5 4 2 3 5 6 4 0 1 1 3 3 9 4 14 14 14 13 14 19 18 18 19 18 17 16 16 15 14 12 12 11 10 9 8 7 8 7 7 6 6 7 7 6
3 6 6 5 3 6 5 7 3 1 7 6 4 3 1 0 2 7 14 15 15 12 9 16 20 18 18 18 17 16 16 15 14 14 12 11 10 8 7 7 7 7 7 7 6 5 4 5 5
5 4 5 3 4 6 6 6 5 9 9 6 6 3 2 2 5 13 16 15 17 11 8 11 16 16 18 18 16 14 14 14 13 12 12 10 9 7 6 6 6 5 5 4 4 3 3 3 2
5 4 6 2 5 5 8 6 3 5 7 1 5 4 3 1 5 8 14 14 13 15 12 12 16 15 15 16 15 12 10 11 11 10 9 8 8 7 5 4 4 3 2 1 1 2 1 1 2
7 5 4 3 3 6 5 9 5 1 2 5 4 5 2 2 6 7 8 10 13 10 10 10 11 13 14 13 13 12 10 9 8 7 7 6 6 5 4 3 3 2 0 2 2 2 2 2 4
6 6 3 3 2 5 4 11 5 5 0 3 2 3 3 4 11 10 8 7 8 11 8 8 7 7 6 6 12 11 11 10 9 9 8 6 5 3 2 2 1 1 1 3 4 4 4 5 6
4 6 2 4 5 5 5 8 7 5 2 3 2 3 1 12 15 12 11 7 8 6 9 8 6 7 6 6 9 11 13 11 10 8 7 5 2 1 2 3 4 2 2 3 4 5 7 8 9
6 5 9 4 3 1 7 2 6 6 2 2 2 4 6 12 14 12 11 12 12 12 8 9 7 7 6 6 5 5 6 4 4 4 5 3 4 3 3 3 5 5 4 3 4 4 6 7 4
2 5 5 6 6 3 3 7 5 2 3 5 4 5 6 7 9 12 10 13 13 11 10 12 10 10 10 8 6 4 3 4 4 6 5 4 3 2 2 2 1 2 3 1 1 2 1 3 3
2 4 3 5 3 6 3 4 5 4 8 6 3 4 11 10 12 13 12 12 14 15 13 13 10 10 10 5 6 8 7 6 5 5 6 4 2 3 2 2 2 2 2 4 1 2 2 2 3
3 2 2 5 8 7 5 5 4 7 10 9 6 7 10 9 9 10 10 10 12 16 14 16 16 14 11 10 7 7 6 5 4 3 4 4 3 4 2 2 2 2 2 3 3 2 2 0 3
3 3 5 6 5 3 1 4 2 8 1 6 7 8 9 13 13 7 9 13 13 14 16 14 13 12 10 10 9 7 7 7 6 6 6 6 4 3 3 3 3 3 2 2 3 3 3 2 1
1 4 6 1 2 5 1 5 3 9 9 10 10 9 5 9 11 16 17 17 19 14 13 14 12 12 12 11 7 8 8 8 6 5 6 6 5 5 4 3 3 5 2 4 3 3 2 1 1
5 6 5 7 6 2 3 7 12 9 4 12 10 10 7 9 17 15 14 15 12 8 14 12 12 12 11 9 5 3 3 5 5 5 4 7 8 7 5 4 5 3 2 2 3 2 2 3 3
8 2 4 11 4 1 4 9 11 13 6 11 11 9 9 10 7 8 13 13 9 9 8 10 10 12 11 7 6 5 7 6 6 5 4 8 6 4 4 4 5 3 3 3 2 2 3 3 2
3 3 4 6 6 5 5 9 10 10 6 10 10 8 8 9 16 8 7 7 6 7 6 6 7 7 7 5 4 2 2 4 1 3 4 4 4 5 4 3 4 3 3 3 3 3 3 2 2
2 2 4 7 7 2 7 7 13 11 9 15 9 7 8 10 3 3 6 7 8 7 8 8 8 7 7 4 5 3 4 3 3 4 5 6 5 3 4 4 4 5 6 6 4 3 5 3 2
4 2 6 8 4 3 9 9 9 6 4 6 10 8 6 9 9 9 4 4 3 3 1 6 7 8 5 4 3 3 3 3 3 5 7 5 5 6 2 7 9 8 5 5 5 4 2 2 4
1 2 5 6 7 2 5 7 5 3 5 14 15 8 7 8 9 11 12 10 8 7 5 1 4 4 4 6 4 3 2 2 1 2 3 6 10 11 11 13 11 11 7 6 4 2 3 4 2
3 3 5 6 3 3 2 8 6 5 7 14 16 13 8 10 11 11 10 11 9 8 8 8 7 5 5 8 6 5 4 3 1 1 2 4 7 7 8 9 10 5 2 3 3 2 3 1 4
3 6 6 4 4 3 8 2 6 7 7 14 14 14 11 11 14 12 11 10 10 8 10 10 12 12 9 8 5 5 6 3 2 2 4 1 1 3 4 6 5 5 6 6 6 5 6 4 3
7 5 3 3 3 1 3 3 4 4 6 9 13 14 10 12 13 12 12 12 12 12 13 11 13 14 12 13 12 10 10 7 7 6 6 5 4 5 3 3 3 5 4 4 5 9 5 6 6
10 7 6 7 5 5 5 2 7 1 3 4 8 10 7 10 11 12 12 13 12 14 12 12 15 16 13 15 15 12 10 10 10 7 5 7 7 5 9 8 5 2 3 4 5 5 5 7 6
4 3 5 4 3 5 6 7 5 4 5 5 6 7 5 13 9 10 11 10 10 11 12 14 14 14 12 12 11 8 7 5 6 5 4 4 4 5 6 7 7 8 6 4 6 5 7 8 7
5 4 1 1 2 2 4 4 4 5 4 7 9 8 7 15 9 8 10 10 10 11 11 10 11 10 10 8 9 9 8 9 7 7 4 4 5 6 6 6 7 7 6 7 4 5 7 7 7
3 2 3 4 2 5 6 4 4 5 2 4 6 9 7 6 14 9 11 9 10 9 10 9 9 8 7 7 8 6 7 8 6 6 8 7 5 5 5 6 6 6 6 6 6 4 4 5 5
5 3 6 3 3 2 5 7 5 5 7 6 4 3 7 11 9 6 9 8 8 7 9 10 11 8 7 6 7 7 7 7 6 6 6 7 6 6 6 5 6 7 8 8 7 6 5 5 5
1 3 4 5 5 3 3 7 3 7 9 10 9 0 9 7 5 8 6 6 6 6 4 4 5 1 5 4 4 3 5 3 4 5 6 7 8 7 6 5 5 6 6 6 7 6 6 6 5
Wind_Direction
35 45 100 40 41 57 293 275 329 26 219 304 346 149 200 154 165 209 179 170 131 144 150 149 153 146 141 138 139 136 132 128 123 122 123 122 121 122 124 124 123 119 115 114 113 113 113 112 115
60 83 45 78 85 35 277 272 324 245 273 132 82 90 90 229 70 104 116 176 146 146 149 150 157 152 147 145 145 142 139 135 133 131 129 125 122 123 122 120 118 116 117 120 126 129 126 124 124
105 44 80 92 108 178 231 264 268 306 241 145 237 38 17 272 112 154 172 143 142 148 153 158 160 156 153 152 152 149 146 142 139 135 130 126 124 125 127 128 128 124 118 116 122 129 134 133 134
78 15 32 85 217 252 228 268 219 180 273 259 122 273 299 264 194 162 137 141 143 145 154 164 159 159 157 157 157 156 151 146 142 138 134 131 130 131 132 133 134 130 125 122 120 122 130 127 138
38 54 63 51 273 261 258 267 224 242 245 217 171 216 317 308 61 133 139 149 148 145 135 161 159 161 160 159 161 161 155 149 146 143 142 141 140 142 144 143 139 130 122 115 111 116 110 100 136
46 95 61 226 258 271 281 250 268 222 229 47 149 107 219 342 107 148 146 153 154 149 149 157 160 164 166 162 160 160 158 151 147 146 146 150 155 156 157 157 151 137 120 107 130 138 127 163 245
111 83 182 199 257 293 258 330 312 130 125 203 138 130 202 178 108 121 141 143 142 139 144 151 157 164 169 166 157 156 156 152 144 142 152 164 169 168 173 178 169 153 207 282 255 226 219 257 284
105 92 126 257 232 275 316 329 272 37 337 138 72 252 223 163 125 106 89 100 127 135 140 144 141 138 144 158 158 156 155 157 158 164 171 184 190 194 232 231 232 208 241 294 298 304 314 298 283
129 65 149 246 173 281 316 354 308 300 281 44 110 228 241 134 124 122 116 117 128 132 128 142 144 138 143 154 167 166 172 169 174 179 184 189 184 209 264 281 279 290 288 298 315 332 325 313 314
84 105 213 236 221 251 293 304 297 18 10 297 199 52 86 141 138 144 155 157 162 166 149 151 152 151 141 163 152 149 173 160 172 175 187 187 205 214 228 257 293 304 299 300 333 353 325 329 324
147 169 209 272 255 217 260 328 278 340 315 233 259 144 136 137 154 158 168 171 171 172 170 170 169 164 165 175 160 162 172 174 176 183 189 200 207 242 290 303 313 325 318 324 14 45 337 337 338
71 223 194 276 270 326 283 294 307 227 241 258 232 173 157 168 172 168 170 174 170 180 182 178 174 173 175 169 181 177 178 183 186 189 184 185 212 221 228 260 297 315 311 301 224 141 223 313 349
152 272 210 270 289 259 326 285 236 260 266 285 300 166 157 162 176 176 175 186 182 184 184 188 179 182 179 178 183 186 184 187 177 180 195 189 199 224 211 246 253 255 277 287 310 322 155 24 338
222 265 281 290 296 279 257 303 347 269 46 285 292 237 172 169 174 151 173 191 196 200 192 185 192 182 179 201 196 189 181 177 180 187 202 196 195 210 228 238 262 262 218 239 254 272 306 15 300
345 325 338 43 316 296 82 342 237 275 342 294 261 258 217 182 167 187 191 200 195 203 181 177 186 181 187 195 197 182 186 176 182 197 189 188 201 211 210 234 243 252 229 256 251 255 224 205 220
38 57 27 299 353 21 83 273 277 283 271 286 269 259 240 183 193 198 194 206 208 182 188 174 185 185 187 184 169 191 209 203 175 191 168 197 210 208 210 222 247 248 236 228 241 232 231 232 177
6 32 335 323 316 346 80 276 274 299 283 267 264 230 210 247 203 213 209 201 185 182 177 169 168 175 189 178 167 179 188 202 162 164 196 196 208 210 215 228 255 259 269 236 218 191 186 213 177
300 344 306 258 273 360 286 257 283 281 292 283 289 233 206 215 232 198 181 174 160 147 154 146 153 177 150 139 135 116 156 278 95 209 183 171 179 186 221 234 235 227 246 238 205 182 198 167 179
209 206 249 265 263 236 269 277 283 311 3 351 309 257 221 215 309 145 136 136 138 148 150 154 144 147 142 148 155 183 189 206 202 212 189 185 189 174 209 246 239 203 216 228 207 176 177 220 138
181 247 287 282 270 162 292 297 292 35 30 345 339 333 356 359 4 8 4 100 93 52 129 164 171 155 156 160 151 152 161 202 185 173 205 210 240 241 282 255 252 220 195 214 212 183 146 186 174
268 162 296 264 315 272 331 305 323 336 18 3 1 347 36 66 54 37 37 30 50 49 35 209 218 172 167 155 118 87 68 55 123 163 177 197 216 220 225 249 255 252 185 194 186 237 214 193 189
24 330 258 269 351 287 46 283 297 6 356 13 3 357 12 44 58 48 38 36 35 35 46 63 86 141 166 161 156 154 176 157 233 237 203 213 197 194 197 221 222 241 225 173 158 146 233 280 195
247 309 291 276 247 64 338 313 268 26 358 348 360 356 32 46 54 40 28 28 33 39 63 65 75 67 53 53 102 100 87 84 68 31 14 280 134 214 223 222 204 200 183 181 199 218 176 209 232
291 338 336 51 107 122 242 171 314 1 324 324 340 348 40 51 50 43 41 38 33 28 38 50 68 66 59 64 60 74 76 63 56 24 14 354 33 50 19 335 261 225 193 182 162 224 154 237 239
29 39 342 353 16 222 281 318 253 121 36 322 342 351 9 48 54 41 38 45 45 43 38 45 50 53 47 54 54 52 58 58 52 38 25 22 19 17 9 5 352 314 252 218 215 196 202 209 214
318 123 157 271 236 270 316 252 313 54 50 21 17 351 346 59 41 56 43 42 42 54 53 52 46 47 41 42 49 48 50 75 67 45 22 29 22 13 6 5 1 2 336 236 214 218 215 208 219
313 43 196 36 27 342 265 297 212 142 82 50 11 359 332 93 60 44 60 51 48 39 33 35 51 56 49 51 37 26 32 48 48 29 18 19 12 359 353 7 10 12 355 331 278 232 234 222 223
90 111 33 13 331 298 293 283 265 218 139 46 65 336 328 70 79 31 62 39 57 61 47 37 39 39 27 52 48 34 22 18 29 45 33 9 344 356 356 359 7 358 349 358 327 290 285 248 236
1 35 58 104 133 234 311 273 217 240 157 127 41 328 336 330 71 53 41 52 59 33 53 43 13 32 13 47 45 30 14 19 16 27 22 7 345 347 360 359 353 358 354 355 0 340 311 275 269
64 149 127 119 267 247 260 264 204 233 177 169 145 7 293 323 2 54 46 16 37 35 65 65 119 21 303 45 56 41 36 21 19 23 17 3 358 343 344 354 357 354 353 351 352 350 345 309 288